| time (UTC) | temp F | wind direction | speed MPH | gust MPH | rain 1hr in | rain 24hr in | rain mn in | humidity % | barometer mb |
| 20260505001813 | 51 | 159 | 1.0 | 2.0 | 0.00 | 0.00 | 0.00 | 83 | 1018.6 |
| 20260505001313 | 51 | 139 | 0.0 | 0.0 | 0.00 | 0.00 | 0.00 | 83 | 1018.7 |
| 20260505000813 | 51 | 139 | 1.0 | 1.0 | 0.00 | 0.00 | 0.00 | 83 | 1018.8 |
| 20260505000313 | 51 | 139 | 1.0 | 2.0 | 0.00 | 0.00 | 0.00 | 83 | 1018.8 |
| 20260504235813 | 51 | 139 | 1.0 | 2.0 | 0.00 | 0.00 | 0.00 | 82 | 1018.8 |
| 20260504235313 | 51 | 139 | 2.0 | 2.0 | 0.00 | 0.00 | 0.00 | 82 | 1018.8 |
| 20260504234813 | 51 | 139 | 2.0 | 3.0 | 0.00 | 0.00 | 0.00 | 82 | 1018.9 |
| 20260504234313 | 51 | 139 | 3.0 | 3.0 | 0.00 | 0.00 | 0.00 | 81 | 1018.9 |
| 20260504233813 | 51 | 139 | 2.0 | 3.0 | 0.00 | 0.00 | 0.00 | 80 | 1018.8 |
| 20260504233313 | 52 | 139 | 1.0 | 3.0 | 0.00 | 0.00 | 0.00 | 79 | 1018.9 |
| 20260504232813 | 52 | 294 | 1.0 | 2.0 | 0.00 | 0.00 | 0.00 | 78 | 1018.9 |
| 20260504232313 | 53 | 294 | 0.0 | 1.0 | 0.00 | 0.00 | 0.00 | 78 | 1019.0 |
| 20260504231813 | 53 | 294 | 2.0 | 2.0 | 0.00 | 0.00 | 0.00 | 79 | 1018.9 |
| 20260504231313 | 54 | 294 | 3.0 | 5.0 | 0.00 | 0.00 | 0.00 | 78 | 1019.0 |
| 20260504230813 | 54 | 292 | 3.0 | 4.0 | 0.00 | 0.00 | 0.00 | 78 | 1018.9 |
| 20260504230313 | 54 | 284 | 3.0 | 4.0 | 0.00 | 0.00 | 0.00 | 78 | 1019.0 |
| 20260504225813 | 54 | 299 | 3.0 | 3.0 | 0.00 | 0.00 | 0.00 | 77 | 1019.1 |
| 20260504225313 | 54 | 299 | 3.0 | 5.0 | 0.00 | 0.00 | 0.00 | 78 | 1019.0 |
| 20260504224813 | 53 | 300 | 2.0 | 4.0 | 0.00 | 0.00 | 0.00 | 78 | 1019.1 |
| 20260504224313 | 53 | 286 | 2.0 | 3.0 | 0.00 | 0.00 | 0.00 | 78 | 1019.2 |
| 20260504223813 | 53 | 285 | 2.0 | 4.0 | 0.00 | 0.00 | 0.00 | 78 | 1019.1 |
| 20260504223313 | 53 | 299 | 2.0 | 4.0 | 0.00 | 0.00 | 0.00 | 77 | 1019.2 |
| 20260504222813 | 54 | 302 | 3.0 | 4.0 | 0.00 | 0.00 | 0.00 | 77 | 1019.2 |
| 20260504222313 | 54 | 302 | 3.0 | 4.0 | 0.00 | 0.00 | 0.00 | 77 | 1019.1 |
| 20260504221813 | 54 | 290 | 4.0 | 6.0 | 0.00 | 0.00 | 0.00 | 77 | 1019.1 |
| 20260504221313 | 54 | 278 | 4.0 | 6.0 | 0.00 | 0.00 | 0.00 | 77 | 1019.1 |
| 20260504220813 | 54 | 275 | 4.0 | 4.0 | 0.00 | 0.00 | 0.00 | 77 | 1019.2 |
| 20260504220313 | 54 | 282 | 2.0 | 6.0 | 0.00 | 0.00 | 0.00 | 77 | 1019.1 |
| 20260504215813 | 53 | 302 | 0.0 | 1.0 | 0.00 | 0.00 | 0.00 | 77 | 1019.1 |
| 20260504215313 | 54 | 5 | 0.0 | 0.0 | 0.00 | 0.00 | 0.00 | 77 | 1019.0 |
| 20260504214813 | 54 | 5 | 0.0 | 0.0 | 0.00 | 0.00 | 0.00 | 76 | 1019.0 |
| 20260504214313 | 54 | 5 | 0.0 | 0.0 | 0.00 | 0.00 | 0.00 | 77 | 1018.9 |
| 20260504213813 | 54 | 5 | 0.0 | 0.0 | 0.00 | 0.00 | 0.00 | 77 | 1018.9 |
| 20260504213313 | 54 | 5 | 0.0 | 0.0 | 0.00 | 0.00 | 0.00 | 78 | 1018.9 |
| 20260504212813 | 54 | 5 | 0.0 | 0.0 | 0.00 | 0.00 | 0.00 | 79 | 1019.0 |
| 20260504212313 | 54 | 37 | 0.0 | 0.0 | 0.00 | 0.00 | 0.00 | 79 | 1019.0 |
| 20260504211813 | 54 | 62 | 0.0 | 0.0 | 0.00 | 0.00 | 0.00 | 79 | 1019.1 |
| 20260504211313 | 54 | 95 | 0.0 | 0.0 | 0.00 | 0.00 | 0.00 | 78 | 1019.1 |
| 20260504210813 | 54 | 95 | 0.0 | 0.0 | 0.00 | 0.00 | 0.00 | 78 | 1019.1 |
| 20260504210313 | 55 | 95 | 0.0 | 0.0 | 0.00 | 0.00 | 0.00 | 78 | 1019.1 |
| 20260504205813 | 55 | 95 | 0.0 | 0.0 | 0.00 | 0.00 | 0.00 | 78 | 1019.1 |
| 20260504205313 | 55 | 95 | 0.0 | 0.0 | 0.00 | 0.00 | 0.00 | 78 | 1019.1 |
| 20260504204813 | 55 | 95 | 0.0 | 0.0 | 0.00 | 0.00 | 0.00 | 77 | 1019.1 |
| 20260504204313 | 55 | 95 | 0.0 | 0.0 | 0.00 | 0.00 | 0.00 | 77 | 1019.1 |
| 20260504203813 | 55 | 95 | 0.0 | 0.0 | 0.00 | 0.00 | 0.00 | 76 | 1019.1 |
| 20260504203313 | 55 | 84 | 0.0 | 0.0 | 0.00 | 0.00 | 0.00 | 75 | 1019.0 |
| 20260504202813 | 56 | 56 | 0.0 | 0.0 | 0.00 | 0.00 | 0.00 | 76 | 1019.0 |
| 20260504202313 | 56 | 56 | 0.0 | 0.0 | 0.00 | 0.00 | 0.00 | 75 | 1018.9 |
| 20260504201813 | 56 | 56 | 0.0 | 0.0 | 0.00 | 0.00 | 0.00 | 75 | 1019.0 |
| 20260504201313 | 56 | 56 | 0.0 | 0.0 | 0.00 | 0.00 | 0.00 | 74 | 1018.9 |
| 20260504200813 | 56 | 56 | 0.0 | 0.0 | 0.00 | 0.00 | 0.00 | 74 | 1018.9 |
| 20260504200313 | 56 | 56 | 0.0 | 0.0 | 0.00 | 0.00 | 0.00 | 73 | 1018.9 |
| 20260504195813 | 56 | 57 | 0.0 | 0.0 | 0.00 | 0.00 | 0.00 | 74 | 1018.8 |
| 20260504195313 | 56 | 348 | 1.0 | 1.0 | 0.00 | 0.00 | 0.00 | 73 | 1018.8 |
| 20260504194813 | 57 | 347 | 2.0 | 3.0 | 0.00 | 0.00 | 0.00 | 74 | 1018.8 |
| 20260504194313 | 57 | 347 | 2.0 | 2.0 | 0.00 | 0.00 | 0.00 | 74 | 1018.7 |
| 20260504193813 | 57 | 347 | 2.0 | 2.0 | 0.00 | 0.00 | 0.00 | 73 | 1018.7 |
| 20260504193313 | 57 | 347 | 3.0 | 4.0 | 0.00 | 0.00 | 0.00 | 72 | 1018.6 |
| 20260504192813 | 58 | 344 | 3.0 | 4.0 | 0.00 | 0.00 | 0.00 | 73 | 1018.6 |
| 20260504192313 | 58 | 331 | 3.0 | 4.0 | 0.00 | 0.00 | 0.00 | 72 | 1018.6 |
| 20260504191813 | 58 | 325 | 2.0 | 4.0 | 0.00 | 0.00 | 0.00 | 71 | 1018.5 |
| 20260504191313 | 58 | 327 | 0.0 | 4.0 | 0.00 | 0.00 | 0.00 | 71 | 1018.5 |
| 20260504190813 | 58 | 62 | 0.0 | 0.0 | 0.00 | 0.00 | 0.00 | 71 | 1018.4 |
| 20260504190313 | 59 | 62 | 0.0 | 0.0 | 0.00 | 0.00 | 0.00 | 71 | 1018.3 |
| 20260504185813 | 59 | 121 | 0.0 | 0.0 | 0.00 | 0.00 | 0.00 | 70 | 1018.3 |
| 20260504185313 | 59 | 121 | 1.0 | 2.0 | 0.00 | 0.00 | 0.00 | 70 | 1018.1 |
| 20260504184813 | 59 | 121 | 2.0 | 3.0 | 0.00 | 0.00 | 0.00 | 70 | 1018.2 |
| 20260504184313 | 59 | 121 | 3.0 | 4.0 | 0.00 | 0.00 | 0.00 | 69 | 1018.0 |
| 20260504183813 | 60 | 121 | 3.0 | 6.0 | 0.00 | 0.00 | 0.00 | 69 | 1018.0 |
| 20260504183313 | 60 | 101 | 3.0 | 4.0 | 0.00 | 0.00 | 0.00 | 68 | 1018.0 |
| 20260504182813 | 60 | 104 | 4.0 | 6.0 | 0.00 | 0.00 | 0.00 | 68 | 1017.9 |
| 20260504182313 | 60 | 105 | 4.0 | 6.0 | 0.00 | 0.00 | 0.00 | 68 | 1017.8 |
| 20260504181813 | 60 | 108 | 4.0 | 7.0 | 0.00 | 0.00 | 0.00 | 67 | 1017.8 |
| 20260504181313 | 61 | 101 | 4.0 | 6.0 | 0.00 | 0.00 | 0.00 | 66 | 1017.7 |
| 20260504180813 | 61 | 109 | 5.0 | 8.0 | 0.00 | 0.00 | 0.00 | 65 | 1017.7 |
| 20260504180313 | 61 | 115 | 7.0 | 9.0 | 0.00 | 0.00 | 0.00 | 65 | 1017.6 |
| 20260504175813 | 61 | 109 | 7.0 | 10.0 | 0.00 | 0.00 | 0.00 | 65 | 1017.5 |
| 20260504175313 | 61 | 106 | 7.0 | 10.0 | 0.00 | 0.00 | 0.00 | 64 | 1017.5 |
| 20260504174813 | 62 | 113 | 7.0 | 9.0 | 0.00 | 0.00 | 0.00 | 64 | 1017.5 |
| 20260504174313 | 62 | 107 | 8.0 | 10.0 | 0.00 | 0.00 | 0.00 | 64 | 1017.5 |
| 20260504173813 | 62 | 105 | 8.0 | 11.0 | 0.00 | 0.00 | 0.00 | 63 | 1017.4 |
| 20260504173313 | 63 | 105 | 8.0 | 10.0 | 0.00 | 0.00 | 0.00 | 62 | 1017.4 |
| 20260504172813 | 63 | 98 | 8.0 | 9.0 | 0.00 | 0.00 | 0.00 | 61 | 1017.4 |
| 20260504172314 | 64 | 76 | 8.0 | 11.0 | 0.00 | 0.00 | 0.00 | 59 | 1017.4 |
| 20260504171813 | 65 | 103 | 7.0 | 10.0 | 0.00 | 0.00 | 0.00 | 58 | 1017.3 |
| 20260504171313 | 66 | 89 | 6.0 | 9.0 | 0.00 | 0.00 | 0.00 | 55 | 1017.3 |
| 20260504170813 | 67 | 90 | 5.0 | 8.0 | 0.00 | 0.00 | 0.00 | 52 | 1017.4 |
| 20260504170314 | 67 | 90 | 4.0 | 7.0 | 0.00 | 0.00 | 0.00 | 48 | 1017.4 |
| 20260504160314 | 70 | 221 | 4.0 | 8.0 | 0.00 | 0.00 | 0.00 | 43 | 1017.0 |
| 20260504150814 | 70 | 225 | 8.0 | 13.0 | 0.00 | 0.00 | 0.00 | 41 | 1017.0 |
| 20260504150314 | 70 | 196 | 9.0 | 13.0 | 0.00 | 0.00 | 0.00 | 40 | 1016.9 |
| 20260504141314 | 71 | 236 | 8.0 | 15.0 | 0.00 | 0.00 | 0.00 | 38 | 1016.9 |
| 20260504140814 | 71 | 238 | 9.0 | 12.0 | 0.00 | 0.00 | 0.00 | 39 | 1016.8 |
| 20260504140314 | 71 | 247 | 10.0 | 13.0 | 0.00 | 0.00 | 0.00 | 40 | 1016.8 |
| 20260504130814 | 71 | 304 | 10.0 | 14.0 | 0.00 | 0.00 | 0.00 | 40 | 1017.1 |
| 20260504130314 | 71 | 267 | 10.0 | 14.0 | 0.00 | 0.00 | 0.00 | 40 | 1017.3 |
| 20260504120314 | 71 | 291 | 9.0 | 14.0 | 0.00 | 0.00 | 0.00 | 30 | 1017.7 |
| 20260504110314 | 70 | 218 | 6.0 | 7.0 | 0.00 | 0.00 | 0.00 | 35 | 1018.7 |
| 20260504100314 | 69 | 323 | 3.0 | 8.0 | 0.00 | 0.00 | 0.00 | 35 | 1019.4 |
| 20260504081814 | 67 | 49 | 2.0 | 4.0 | 0.00 | 0.00 | 0.00 | 34 | 1019.9 |
| 20260504081315 | 67 | 35 | 2.0 | 4.0 | 0.00 | 0.00 | 0.00 | 35 | 1020.0 |
| 20260504080814 | 66 | 39 | 2.0 | 3.0 | 0.00 | 0.00 | 0.00 | 35 | 1019.9 |
| 20260504080314 | 66 | 286 | 2.0 | 4.0 | 0.00 | 0.00 | 0.00 | 36 | 1019.9 |
| 20260504070315 | 65 | 140 | 1.0 | 3.0 | 0.00 | 0.00 | 0.00 | 35 | 1020.1 |
| 20260504050315 | 57 | 44 | 2.0 | 3.0 | 0.00 | 0.00 | 0.00 | 41 | 1019.8 |
| 20260504045815 | 57 | 331 | 1.0 | 2.0 | 0.00 | 0.00 | 0.00 | 41 | 1019.8 |
| 20260504045315 | 56 | 302 | 2.0 | 3.0 | 0.00 | 0.00 | 0.00 | 42 | 1019.8 |
| 20260504044815 | 56 | 302 | 3.0 | 4.0 | 0.00 | 0.00 | 0.00 | 42 | 1019.6 |
| 20260504044315 | 56 | 302 | 4.0 | 6.0 | 0.00 | 0.00 | 0.00 | 43 | 1019.7 |
| 20260504043815 | 55 | 264 | 4.0 | 6.0 | 0.00 | 0.00 | 0.00 | 44 | 1019.7 |
| 20260504043315 | 54 | 271 | 3.0 | 7.0 | 0.00 | 0.00 | 0.00 | 46 | 1019.6 |
| 20260504042815 | 54 | 259 | 2.0 | 4.0 | 0.00 | 0.00 | 0.00 | 47 | 1019.6 |
| 20260504042315 | 54 | 302 | 2.0 | 2.0 | 0.00 | 0.00 | 0.00 | 46 | 1019.4 |
| 20260504041815 | 54 | 281 | 2.0 | 2.0 | 0.00 | 0.00 | 0.00 | 46 | 1019.4 |
| 20260504041315 | 54 | 258 | 2.0 | 4.0 | 0.00 | 0.00 | 0.00 | 46 | 1019.4 |
| 20260504040815 | 54 | 350 | 3.0 | 4.0 | 0.00 | 0.00 | 0.00 | 45 | 1019.3 |
| 20260504040315 | 55 | 347 | 3.0 | 5.0 | 0.00 | 0.00 | 0.00 | 44 | 1019.1 |
| 20260504035815 | 55 | 327 | 3.0 | 5.0 | 0.00 | 0.00 | 0.00 | 43 | 1019.0 |
| 20260504035315 | 57 | 323 | 4.0 | 4.0 | 0.00 | 0.00 | 0.00 | 42 | 1019.0 |
| 20260504034815 | 57 | 86 | 6.0 | 7.0 | 0.00 | 0.00 | 0.00 | 39 | 1019.0 |
| 20260504034315 | 58 | 91 | 7.0 | 10.0 | 0.00 | 0.00 | 0.00 | 38 | 1018.9 |
| 20260504033815 | 57 | 78 | 6.0 | 9.0 | 0.00 | 0.00 | 0.00 | 39 | 1018.8 |
| 20260504033315 | 56 | 80 | 5.0 | 9.0 | 0.00 | 0.00 | 0.00 | 40 | 1018.8 |
| 20260504032815 | 56 | 69 | 2.0 | 6.0 | 0.00 | 0.00 | 0.00 | 41 | 1018.9 |
| 20260504032315 | 56 | 81 | 1.0 | 4.0 | 0.00 | 0.00 | 0.00 | 41 | 1018.7 |
| 20260504031815 | 56 | 98 | 1.0 | 3.0 | 0.00 | 0.00 | 0.00 | 41 | 1018.8 |
| 20260504031315 | 56 | 98 | 3.0 | 6.0 | 0.00 | 0.00 | 0.00 | 41 | 1018.9 |
| 20260504030815 | 57 | 107 | 5.0 | 8.0 | 0.00 | 0.00 | 0.00 | 40 | 1018.9 |
| 20260504030315 | 57 | 57 | 3.0 | 7.0 | 0.00 | 0.00 | 0.00 | 40 | 1018.9 |
| 20260504025815 | 57 | 55 | 1.0 | 7.0 | 0.00 | 0.00 | 0.00 | 40 | 1018.8 |
| 20260504025315 | 57 | 23 | 1.0 | 2.0 | 0.00 | 0.00 | 0.00 | 40 | 1018.9 |
| 20260504024815 | 58 | 134 | 4.0 | 4.0 | 0.00 | 0.00 | 0.00 | 39 | 1018.9 |
| 20260504024315 | 58 | 108 | 7.0 | 11.0 | 0.00 | 0.00 | 0.00 | 39 | 1018.8 |
| 20260504023815 | 58 | 74 | 8.0 | 15.0 | 0.00 | 0.00 | 0.00 | 37 | 1018.8 |
| 20260504023315 | 59 | 72 | 7.0 | 15.0 | 0.00 | 0.00 | 0.00 | 37 | 1018.8 |
| 20260504022815 | 58 | 83 | 5.0 | 13.0 | 0.00 | 0.00 | 0.00 | 37 | 1018.8 |
| 20260504022315 | 57 | 91 | 3.0 | 6.0 | 0.00 | 0.00 | 0.00 | 40 | 1018.9 |
| 20260504021815 | 57 | 109 | 2.0 | 7.0 | 0.00 | 0.00 | 0.00 | 40 | 1018.8 |
| 20260504021315 | 57 | 53 | 2.0 | 6.0 | 0.00 | 0.00 | 0.00 | 40 | 1018.8 |
| 20260504020815 | 57 | 136 | 2.0 | 5.0 | 0.00 | 0.00 | 0.00 | 40 | 1018.8 |
| 20260504020315 | 57 | 132 | 3.0 | 5.0 | 0.00 | 0.00 | 0.00 | 40 | 1018.8 |
| 20260504015815 | 57 | 134 | 4.0 | 7.0 | 0.00 | 0.00 | 0.00 | 40 | 1018.7 |
| 20260504015315 | 57 | 124 | 3.0 | 5.0 | 0.00 | 0.00 | 0.00 | 40 | 1018.8 |
| 20260504014815 | 58 | 144 | 4.0 | 5.0 | 0.00 | 0.00 | 0.00 | 38 | 1018.7 |
| 20260504014315 | 59 | 138 | 7.0 | 9.0 | 0.00 | 0.00 | 0.00 | 36 | 1018.7 |
| 20260504013815 | 60 | 94 | 8.0 | 14.0 | 0.00 | 0.00 | 0.00 | 34 | 1018.7 |
| 20260504013315 | 60 | 119 | 9.0 | 12.0 | 0.00 | 0.00 | 0.00 | 34 | 1018.7 |
| 20260504012815 | 60 | 65 | 11.0 | 14.0 | 0.00 | 0.00 | 0.00 | 33 | 1018.6 |
| 20260504012315 | 60 | 74 | 12.0 | 17.0 | 0.00 | 0.00 | 0.00 | 33 | 1018.6 |
| 20260504011815 | 60 | 79 | 13.0 | 19.0 | 0.00 | 0.00 | 0.00 | 34 | 1018.5 |
| 20260504011316 | 60 | 71 | 13.0 | 19.0 | 0.00 | 0.00 | 0.00 | 33 | 1018.5 |
| 20260504010815 | 60 | 59 | 13.0 | 16.0 | 0.00 | 0.00 | 0.00 | 33 | 1018.5 |
| 20260504010315 | 60 | 73 | 12.0 | 18.0 | 0.00 | 0.00 | 0.00 | 34 | 1018.5 |
| 20260504005815 | 60 | 94 | 9.0 | 17.0 | 0.00 | 0.00 | 0.00 | 34 | 1018.5 |
| 20260504005315 | 59 | 82 | 8.0 | 9.0 | 0.00 | 0.00 | 0.00 | 37 | 1018.6 |
| 20260504004815 | 59 | 77 | 8.0 | 12.0 | 0.00 | 0.00 | 0.00 | 36 | 1018.6 |
| 20260504004315 | 60 | 65 | 9.0 | 13.0 | 0.00 | 0.00 | 0.00 | 36 | 1018.6 |
| 20260504003815 | 60 | 51 | 10.0 | 18.0 | 0.00 | 0.00 | 0.00 | 34 | 1018.6 |
| 20260504003315 | 60 | 93 | 12.0 | 17.0 | 0.00 | 0.00 | 0.00 | 34 | 1018.5 |
| 20260504002815 | 60 | 48 | 12.0 | 19.0 | 0.00 | 0.00 | 0.00 | 33 | 1018.5 |
| 20260504002315 | 60 | 88 | 11.0 | 14.0 | 0.00 | 0.00 | 0.00 | 35 | 1018.4 |